ATHENA-FIDUS

Last updated on Sun Dec 07 2025 00:02:48 GMT+0000 (Coordinated Universal Time)

1 39509U 14006B 25340.34836662 .00000162 00000+0 00000+0 0 9996 2 39509 0.0270 76.4517 0001599 173.5048 348.6518 1.00269130 43159
UTC large
Height (km)
Speed (km/s)
/
Latitude / Longitude
Inclination (degrees)
Orbital Period (minutes)
Azimuth
Elevation
Range (km)
Doppler Factor

Next 0 passes for location: London (51.5072 / 0.1276)

Sorry there are no passes over London.